CHEFSAT (43044 NORAD) Tracking and Keplerian Element Data

This shows tracking and keplerian element data for the satellite.

Feedback or suggestion? Click here.




ElementValue
Catalog43044
NameCHEFSAT
Epoch Orbit6801
Epoch Day52.40840297
Epoch Year2019
RAAN262.7735
Inclination51.6378
Eccentricity0.0005356
Argument of Perigee94.7877
Mean Anonmoly265.372
Mean Motion15.42404855
Decay Rate5.315E-05
L11 43044U 17071H 19052.40840297 .00005315 00000-0 13034-3 0 9990
L22 43044 51.6378 262.7735 0005356 94.7877 265.3720 15.42404855 68018

Live tracking and technical data element details for CHEFSAT (NORAD 43044). CHEFSAT can be tracked NOW for your location showing map with azimuth and elevation plus other details from your city location.

Track the satellite on the map from your city or location and see movement details for azimuth, elevation, latitude, longitude, range, height, and movement on the map or in text.







IsCatalogInMostPopularTable: catalog: 43044, numindb: 185
Update: records affected: 1



GetName: 43044 CHEFSAT

Hit Count: updated at: Fri, 22 Feb 2019 22:43:59 GMT